Time,TemperatureF,DewpointF,PressureIn,WindDirection,WindDirectionDegrees,WindSpeedMPH,WindSpeedGustMPH,Humidity,HourlyPrecipIn,Conditions,Clouds,dailyrainin,SoftwareType,DateUTC
2013-12-08 00:23:00,12.0,1.0,-100.00,ENE,60,6.0,9.0,61,0.00,,,-99.99,,2013-12-08 06:23:00,
2013-12-08 00:42:00,12.0,1.0,-100.00,ENE,65,6.0,7.0,61,0.00,,,-99.99,,2013-12-08 06:42:00,
2013-12-08 01:22:00,12.0,1.0,-100.00,ENE,70,6.0,9.0,60,0.00,,,-99.99,,2013-12-08 07:22:00,
2013-12-08 01:42:00,13.0,1.0,-100.00,East,80,7.0,10.0,60,0.00,,,-99.99,,2013-12-08 07:42:00,
2013-12-08 02:22:00,13.0,1.0,-100.00,ENE,65,7.0,10.0,59,0.00,,,-99.99,,2013-12-08 08:22:00,
2013-12-08 02:42:00,13.0,1.0,-100.00,ENE,75,7.0,9.0,59,0.00,,,-99.99,,2013-12-08 08:42:00,
2013-12-08 03:22:00,13.0,1.0,-100.00,East,95,6.0,11.0,58,0.00,,,-99.99,,2013-12-08 09:22:00,
2013-12-08 03:43:00,13.0,1.0,-100.00,East,80,6.0,9.0,58,0.00,,,-99.99,,2013-12-08 09:43:00,
2013-12-08 04:23:00,13.0,1.0,-100.00,East,90,7.0,9.0,58,0.00,,,-99.99,,2013-12-08 10:23:00,
2013-12-08 04:43:00,13.0,1.0,-100.00,East,95,7.0,11.0,58,0.00,,,-99.99,,2013-12-08 10:43:00,
2013-12-08 05:22:00,13.0,2.0,-100.00,East,95,9.0,11.0,59,0.00,,,-99.99,,2013-12-08 11:22:00,
2013-12-08 05:43:00,14.0,2.0,-100.00,East,95,8.0,11.0,60,0.00,,,-99.99,,2013-12-08 11:43:00,
2013-12-08 06:22:00,14.0,3.0,-100.00,East,95,7.0,10.0,60,0.00,,,-99.99,,2013-12-08 12:22:00,
2013-12-08 06:42:00,14.0,3.0,-100.00,East,90,9.0,12.0,61,0.00,,,-99.99,,2013-12-08 12:42:00,
2013-12-08 07:22:00,14.0,4.0,-100.00,East,90,9.0,11.0,65,0.00,,,-99.99,,2013-12-08 13:22:00,
2013-12-08 07:42:00,13.0,5.0,-100.00,East,90,6.0,10.0,67,0.01,,,-99.99,,2013-12-08 13:42:00,
2013-12-08 08:22:00,13.0,7.0,-100.00,East,90,11.0,13.0,73,0.00,,,-99.99,,2013-12-08 14:22:00,
2013-12-08 08:42:00,14.0,8.0,-100.00,East,85,10.0,12.0,75,0.00,,,-99.99,,2013-12-08 14:42:00,
2013-12-08 09:22:00,15.0,10.0,-100.00,East,95,7.0,12.0,79,0.00,,,-99.99,,2013-12-08 15:22:00,
2013-12-08 09:43:00,15.0,10.0,-100.00,East,85,7.0,11.0,81,0.01,,,-99.99,,2013-12-08 15:43:00,
2013-12-08 10:23:00,16.0,12.0,-100.00,East,100,9.0,12.0,84,0.01,,,-99.99,,2013-12-08 16:23:00,
2013-12-08 10:43:00,16.0,12.0,-100.00,East,95,8.0,12.0,84,0.00,,,-99.99,,2013-12-08 16:43:00,
2013-12-08 11:22:00,17.0,13.0,-100.00,East,90,9.0,12.0,85,0.01,,,-99.99,,2013-12-08 17:22:00,
2013-12-08 11:42:00,18.0,14.0,-100.00,East,90,8.0,12.0,86,0.00,,,-99.99,,2013-12-08 17:42:00,
2013-12-08 12:22:00,18.0,15.0,-100.00,East,85,10.0,12.0,86,0.01,,,-99.99,,2013-12-08 18:22:00,
2013-12-08 12:42:00,19.0,15.0,-100.00,East,90,9.0,12.0,86,0.01,,,-99.99,,2013-12-08 18:42:00,
2013-12-08 13:22:00,19.0,16.0,-100.00,East,80,6.0,11.0,87,0.04,,,-99.99,,2013-12-08 19:22:00,
2013-12-08 13:42:00,19.0,16.0,-100.00,East,95,7.0,11.0,87,0.00,,,-99.99,,2013-12-08 19:42:00,
2013-12-08 14:22:00,19.0,16.0,-100.00,ESE,110,6.0,9.0,87,0.01,,,-99.99,,2013-12-08 20:22:00,
2013-12-08 14:42:00,19.0,16.0,-100.00,East,100,6.0,10.0,87,0.01,,,-99.99,,2013-12-08 20:42:00,
2013-12-08 15:22:00,19.0,17.0,-100.00,ESE,110,4.0,6.0,89,0.00,,,-99.99,,2013-12-08 21:22:00,
2013-12-08 15:43:00,19.0,17.0,-100.00,East,95,4.0,6.0,89,0.00,,,-99.99,,2013-12-08 21:43:00,
2013-12-08 16:23:00,19.0,17.0,-100.00,East,90,4.0,4.0,90,0.00,,,-99.99,,2013-12-08 22:23:00,
2013-12-08 16:43:00,19.0,17.0,-100.00,East,90,3.0,4.0,90,0.01,,,-99.99,,2013-12-08 22:43:00,
2013-12-08 17:22:00,18.0,17.0,-100.00,ENE,75,1.0,3.0,91,0.00,,,-99.99,,2013-12-08 23:22:00,
2013-12-08 17:42:00,18.0,17.0,-100.00,ENE,65,1.0,2.0,91,0.00,,,-99.99,,2013-12-08 23:42:00,
2013-12-08 18:22:00,18.0,17.0,-100.00,ESE,115,1.0,2.0,93,0.00,,,-99.99,,2013-12-09 00:22:00,
2013-12-08 18:42:00,18.0,17.0,-100.00,SSE,155,0.0,1.0,93,0.00,,,-99.99,,2013-12-09 00:42:00,
2013-12-08 19:22:00,18.0,17.0,-100.00,West,260,1.0,1.0,93,0.00,,,-99.99,,2013-12-09 01:22:00,
2013-12-08 19:42:00,18.0,17.0,-100.00,WSW,245,2.0,2.0,93,0.00,,,-99.99,,2013-12-09 01:42:00,
2013-12-08 20:21:00,18.0,17.0,-100.00,WSW,255,3.0,4.0,94,0.00,,,-99.99,,2013-12-09 02:21:00,
2013-12-08 20:42:00,18.0,17.0,-100.00,WSW,250,3.0,4.0,94,0.00,,,-99.99,,2013-12-09 02:42:00,
2013-12-08 21:22:00,18.0,17.0,-100.00,West,280,5.0,6.0,94,0.01,,,-99.99,,2013-12-09 03:22:00,
2013-12-08 21:43:00,18.0,17.0,-100.00,West,265,5.0,6.0,94,0.07,,,-99.99,,2013-12-09 03:43:00,
2013-12-08 22:23:00,18.0,17.0,-100.00,West,260,7.0,7.0,94,0.00,,,-99.99,,2013-12-09 04:23:00,
2013-12-08 22:43:00,18.0,17.0,-100.00,West,270,6.0,8.0,94,0.00,,,-99.99,,2013-12-09 04:43:00,
2013-12-08 23:23:00,18.0,16.0,-100.00,West,265,7.0,9.0,94,0.01,,,-99.99,,2013-12-09 05:23:00,
2013-12-08 23:42:00,18.0,16.0,-100.00,West,265,7.0,14.0,93,0.00,,,-99.99,,2013-12-09 05:42:00,